Grazzanise, Italy

1:27 PM CEST on April 25, 2017 (GMT +0200)
Grazzanise Mil

Weather History for LIRM - October, 2012

Change the Weather History Date:

Saturday, October 13, 2012

  Actual Average (LIRN) Record (LIRN)
Temperature  
Mean Temperature 65 °F -  
Max Temperature 71 °F 68 °F 87 °F (2000)
Min Temperature 59 °F 50 °F 48 °F (2002)
Growing Degree Days 15 (Base 50)    
Moisture  
Dew Point 59 °F    
Average Humidity 82    
Maximum Humidity 94    
Minimum Humidity 73    
Precipitation  
Precipitation 0.08 in 0.16 in - ()
Sea Level Pressure  
Sea Level Pressure 29.89 in    
Wind  
Wind Speed 2 mph ()    
Max Wind Speed 10 mph    
Max Gust Speed 30 mph    
Visibility 4.9 miles    
Events Rain , Thunderstorm    
Averages and records for this station are not official NWS values.
T = Trace of Precipitation, MM = Missing Value Source: Averaged Metar Reports

Daily Weather History Graph

Daily Weather History Graph

Search for Another Location

Airport or City:

Trip Planner

Search our weather history database for the weather conditions in past years. The results will help you decide how hot, cold, wet, or windy it might be!

Date:

Astronomy

Oct. 13, 2012 Rise Set
Actual Time 7:13 AM CEST 6:25 PM CEST
Civil Twilight 6:45 AM CEST 6:53 PM CEST
Nautical Twilight 6:13 AM CEST 7:25 PM CEST
Astronomical Twilight 5:41 AM CEST 7:57 PM CEST
Moon 4:42 AM CEST (10/13) 5:00 PM CEST (10/13)
Length of Visible Light 12h 07m
Length of Day
11h 12m
Waning Crescent, 6% of the Moon is Illuminated
Oct 13
Waning Crescent
Oct 15
New
Oct 22
First Quarter
Oct 29
Full
Nov 7
Last Quarter

Hourly Weather History & Observations

Time (CEST) Temp. Dew Point Humidity Pressure Visibility Wind Dir Wind Speed Gust Speed Precip Events Conditions
12:55 AM 64.4 °F 59.0 °F 83% 29.92 in 6.2 mi Calm Calm - N/A   Scattered Clouds
1:55 AM 62.6 °F 57.2 °F 82% 29.92 in 6.2 mi Calm Calm - N/A   Scattered Clouds
2:00 AM 63 °F 57 °F 75% 29.93 in 7 mi Calm Calm - -   Partly Cloudy
2:55 AM 62.6 °F 57.2 °F 82% 29.92 in 6.2 mi Calm Calm - N/A   Scattered Clouds
3:55 AM 62.6 °F 57.2 °F 82% 29.92 in 6.2 mi Calm Calm - N/A   Partly Cloudy
4:55 AM 62.6 °F 57.2 °F 82% 29.92 in 6.2 mi Calm Calm - N/A   Partly Cloudy
5:00 AM 63 °F 57 °F 76% 29.92 in 9 mi Calm Calm - -   Scattered Clouds
5:55 AM 62.6 °F 57.2 °F 82% 29.92 in 6.2 mi NNE 4.6 mph - N/A   Partly Cloudy
6:55 AM 60.8 °F 55.4 °F 82% 29.92 in 3.1 mi NNE 3.5 mph - N/A   Scattered Clouds
8:00 AM 62 °F 55 °F 73% 29.92 in 3 mi NE 4.6 mph - -   Mist
8:55 AM 62.6 °F 57.2 °F 82% 29.92 in 3.1 mi NNE 3.5 mph - N/A   Mostly Cloudy
9:55 AM 64.4 °F 59.0 °F 83% 29.92 in 3.1 mi NNE 5.8 mph - N/A   Mostly Cloudy
10:55 AM 66.2 °F 59.0 °F 78% 29.92 in 3.7 mi NE 4.6 mph - N/A Rain Light Rain
11:00 AM 66 °F 60 °F 74% 29.93 in 4 mi NE 4.6 mph - - Rain Light Rain
11:55 AM 66.2 °F 60.8 °F 83% 29.92 in 3.1 mi NE 3.5 mph - N/A Rain Light Rain
12:55 PM 66.2 °F 60.8 °F 83% 29.92 in 3.1 mi ENE 5.8 mph - N/A Rain , Thunderstorm Light Thunderstorms and Rain
1:55 PM 68.0 °F 62.6 °F 83% 29.89 in 3.1 mi North 4.6 mph - N/A   Mostly Cloudy
2:00 PM 68 °F 62 °F 76% 29.90 in 3 mi North 4.6 mph - - Thunderstorm Light Thunderstorm
2:55 PM 68.0 °F 62.6 °F 83% 29.89 in 3.7 mi NNE 5.8 mph - N/A   Mostly Cloudy
3:55 PM 69.8 °F 64.4 °F 83% 29.86 in 4.3 mi NNE 5.8 mph - N/A   Mostly Cloudy
5:00 PM 71 °F 66 °F 80% 29.85 in 4 mi NNE 3.5 mph - -   Mist
5:55 PM 69.8 °F 66.2 °F 88% 29.83 in 6.2 mi NE 6.9 mph - N/A   Scattered Clouds
6:55 PM 66.2 °F 64.4 °F 94% 29.83 in 3.7 mi WSW 10.4 mph 29.9 mph N/A Rain , Thunderstorm Light Thunderstorms and Rain
7:55 PM 62.6 °F 59.0 °F 88% 29.83 in 3.7 mi South 2.3 mph - N/A Rain Rain
8:00 PM 62 °F 59 °F 87% 29.85 in 4 mi South 2.3 mph - -   Overcast
8:55 PM 62.6 °F 59.0 °F 88% 29.83 in 6.2 mi Calm Calm - N/A Rain Light Rain
9:55 PM 62.6 °F 57.2 °F 82% 29.83 in 6.2 mi Calm Calm - N/A   Mostly Cloudy
10:55 PM 60.8 °F 57.2 °F 88% 29.83 in 6.2 mi NE 2.3 mph - N/A   Scattered Clouds
11:00 PM 62 °F 57 °F 77% 29.85 in 7 mi NE 2.3 mph - -   Partly Cloudy
11:55 PM 60.8 °F 57.2 °F 88% 29.83 in 6.2 mi North 2.3 mph - N/A   Scattered Clouds